Eelde, Netherlands

9:45 AM CEST on July 28, 2017 (GMT +0200)
Eelde

Weather History for EHGG - September, 2013

Change the Weather History Date:

Tuesday, September 17, 2013

  Actual Average Record
Temperature  
Mean Temperature 51 °F -  
Max Temperature 59 °F 60 °F 77 °F (2003)
Min Temperature 43 °F 45 °F 41 °F (1996)
Degree Days  
Heating Degree Days 14    
Growing Degree Days 1 (Base 50)    
Moisture  
Dew Point 46 °F    
Average Humidity 81    
Maximum Humidity 93    
Minimum Humidity 52    
Precipitation  
Precipitation 0.00 in 0.09 in - ()
Sea Level Pressure  
Sea Level Pressure 29.47 in    
Wind  
Wind Speed 13 mph ()    
Max Wind Speed 24 mph    
Max Gust Speed -    
Visibility 7.1 miles    
Events Rain    
Averages and records for this station are not official NWS values.
T = Trace of Precipitation, MM = Missing Value Source: Averaged Metar Reports

Daily Weather History Graph

Daily Weather History Graph

Search for Another Location

Airport or City:

Trip Planner

Search our weather history database for the weather conditions in past years. The results will help you decide how hot, cold, wet, or windy it might be!

Date:

Astronomy

Sep. 17, 2013 Rise Set
Actual Time 7:10 AM CEST 7:44 PM CEST
Civil Twilight 6:36 AM CEST 8:18 PM CEST
Nautical Twilight 5:54 AM CEST 9:00 PM CEST
Astronomical Twilight 5:10 AM CEST 9:44 PM CEST
Moon 6:30 PM CEST (9/17) 4:33 AM CEST (9/17)
Length of Visible Light 13h 42m
Length of Day
12h 33m
Waxing Gibbous, 94% of the Moon is Illuminated
Sep 17
Waxing Gibbous
Sep 19
Full
Sep 27
Last Quarter
Oct 5
New
Oct 12
First Quarter

Hourly Weather History & Observations

Time (CEST) Temp. Windchill Dew Point Humidity Pressure Visibility Wind Dir Wind Speed Gust Speed Precip Events Conditions
12:25 AM 46.4 °F 41.5 °F 42.8 °F 87% 29.47 in 6.2 mi SSW 10.4 mph - N/A   Partly Cloudy
12:55 AM 46.4 °F 40.7 °F 42.8 °F 87% 29.47 in 6.2 mi SSW 12.7 mph - N/A Rain Light Rain
1:25 AM 44.6 °F 38.8 °F 42.8 °F 93% 29.47 in 6.2 mi SSW 11.5 mph - N/A   Unknown
1:55 AM 46.4 °F 41.1 °F 42.8 °F 87% 29.47 in 6.2 mi SSW 11.5 mph - N/A   Mostly Cloudy
2:00 AM 46 °F - 44 °F 89% 29.49 in 19 mi SW 13.4 mph - -   Partly Cloudy
2:25 AM 46.4 °F 40.7 °F 44.6 °F 93% 29.47 in 6.2 mi SW 12.7 mph - N/A   Drizzle
2:55 AM 46.4 °F 42.9 °F 44.6 °F 93% 29.47 in 6.2 mi SSW 6.9 mph - N/A Rain Light Rain
3:25 AM 46.4 °F 42.4 °F 44.6 °F 93% 29.47 in 6.2 mi SSW 8.1 mph - N/A Rain Light Rain
3:55 AM 46.4 °F 41.9 °F 44.6 °F 93% 29.47 in 6.2 mi SSW 9.2 mph - N/A Rain Light Rain
4:25 AM 46.4 °F 41.5 °F 44.6 °F 93% 29.47 in 6.2 mi SW 10.4 mph - N/A Rain Rain Showers
4:55 AM 46.4 °F 42.4 °F 44.6 °F 93% 29.47 in 6.2 mi SSW 8.1 mph - N/A Rain Light Rain
5:25 AM 48.2 °F - 44.6 °F 87% 29.44 in 6.2 mi SSW 13.8 mph - N/A   Scattered Clouds
5:55 AM 48.2 °F - 46.4 °F 93% 29.47 in 6.2 mi SW 15.0 mph - N/A Rain Light Rain
6:25 AM 48.2 °F - 46.4 °F 93% 29.47 in 6.2 mi SSW 12.7 mph - N/A Rain Light Rain
6:55 AM 46.4 °F 40.4 °F 44.6 °F 93% 29.47 in 6.2 mi SSW 13.8 mph - N/A   Scattered Clouds
7:25 AM 48.2 °F - 46.4 °F 93% 29.47 in 6.2 mi SSW 12.7 mph - N/A   Mostly Cloudy
7:55 AM 46.4 °F 40.4 °F 44.6 °F 93% 29.47 in 6.2 mi SSW 13.8 mph - N/A   Partly Cloudy
8:00 AM 47 °F - 45 °F 92% 29.49 in 7 mi SSW 13.4 mph - - Rain Rain
8:25 AM 48.2 °F - 46.4 °F 93% 29.47 in 6.2 mi SSW 13.8 mph - N/A   Scattered Clouds
8:55 AM 50.0 °F - 46.4 °F 87% 29.47 in 6.2 mi SSW 15.0 mph - N/A   Unknown
9:25 AM 51.8 °F - 48.2 °F 88% 29.47 in 6.2 mi SSW 15.0 mph - N/A   Partly Cloudy
9:55 AM 51.8 °F - 48.2 °F 88% 29.47 in 6.2 mi SSW 17.3 mph - N/A   Partly Cloudy
10:25 AM 55.4 °F - 50.0 °F 82% 29.47 in 6.2 mi SSW 13.8 mph - N/A   Scattered Clouds
10:55 AM 53.6 °F - 48.2 °F 82% 29.47 in 6.2 mi SSW 19.6 mph - N/A   Mostly Cloudy
11:00 AM 55 °F - 50 °F 76% 29.50 in 12 mi SSW 17.9 mph - -   Scattered Clouds
11:25 AM 55.4 °F - 48.2 °F 77% 29.50 in 6.2 mi SW 19.6 mph - N/A   Scattered Clouds
11:55 AM 55.4 °F - 48.2 °F 77% 29.50 in 6.2 mi WSW 18.4 mph - N/A   Partly Cloudy
12:25 PM 57.2 °F - 48.2 °F 72% 29.50 in 6.2 mi SW 19.6 mph - N/A   Partly Cloudy
12:55 PM 55.4 °F - 48.2 °F 77% 29.50 in 6.2 mi SW 23.0 mph - N/A   Mostly Cloudy
1:25 PM 57.2 °F - 46.4 °F 67% 29.50 in 6.2 mi SW 24.2 mph - N/A   Scattered Clouds
1:55 PM 59.0 °F - 44.6 °F 59% 29.50 in 6.2 mi SW 23.0 mph - N/A   Mostly Cloudy
2:00 PM 58 °F - 45 °F 52% 29.51 in 16 mi SW 22.4 mph - -   Partly Cloudy
2:25 PM 59.0 °F - 46.4 °F 63% 29.50 in 6.2 mi SW 21.9 mph - N/A   Mostly Cloudy
2:55 PM 57.2 °F - 44.6 °F 63% 29.50 in 6.2 mi WSW 18.4 mph - N/A   Partly Cloudy
3:25 PM 57.2 °F - 46.4 °F 67% 29.50 in 6.2 mi SW 19.6 mph - N/A   Partly Cloudy
3:55 PM 57.2 °F - 46.4 °F 67% 29.47 in 6.2 mi SW 19.6 mph - N/A   Partly Cloudy
4:25 PM 57.2 °F - 46.4 °F 67% 29.47 in 6.2 mi SW 16.1 mph - N/A   Partly Cloudy
4:55 PM 57.2 °F - 46.4 °F 67% 29.47 in 6.2 mi SW 17.3 mph - N/A   Scattered Clouds
5:00 PM 56 °F - 45 °F 57% 29.49 in 16 mi SW 20.1 mph - -   Scattered Clouds
5:25 PM 55.4 °F - 46.4 °F 72% 29.47 in 6.2 mi SW 16.1 mph - N/A   Mostly Cloudy
5:55 PM 53.6 °F - 46.4 °F 77% 29.47 in 6.2 mi SSW 15.0 mph - N/A   Partly Cloudy
6:25 PM 53.6 °F - 46.4 °F 77% 29.47 in 6.2 mi SSW 13.8 mph - N/A   Scattered Clouds
6:55 PM 53.6 °F - 46.4 °F 77% 29.47 in 6.2 mi SSW 13.8 mph - N/A   Partly Cloudy
7:25 PM 51.8 °F - 44.6 °F 76% 29.44 in 6.2 mi SSW 13.8 mph - N/A   Unknown
7:55 PM 51.8 °F - 44.6 °F 76% 29.44 in 6.2 mi SSW 11.5 mph - N/A   Partly Cloudy
8:00 PM 52 °F - 45 °F 71% 29.46 in 14 mi SSW 11.2 mph - -   Partly Cloudy
8:25 PM 51.8 °F - 44.6 °F 76% 29.44 in 6.2 mi SSW 11.5 mph - N/A   Unknown
8:55 PM 50.0 °F - 44.6 °F 82% 29.44 in 6.2 mi SSW 13.8 mph - N/A   Unknown
9:25 PM 50.0 °F - 44.6 °F 82% 29.44 in 6.2 mi SSW 13.8 mph - N/A   Drizzle
9:55 PM 48.2 °F - 46.4 °F 93% 29.44 in 6.2 mi SSW 12.7 mph - N/A   Light Drizzle
10:25 PM 48.2 °F - 46.4 °F 93% 29.42 in 6.2 mi SSW 12.7 mph - N/A   Light Drizzle
10:55 PM 48.2 °F - 44.6 °F 87% 29.42 in 6.2 mi SSW 9.2 mph - N/A   Unknown
11:00 PM 48 °F - 45 °F 87% 29.42 in 11 mi SSW 8.9 mph - - Rain Drizzle
11:25 PM 48.2 °F - 44.6 °F 87% 29.39 in 6.2 mi SSW 9.2 mph - N/A   Unknown
11:55 PM 48.2 °F - 44.6 °F 87% 29.39 in 6.2 mi South 8.1 mph - N/A   Unknown